Location: Newark
(42.9277°N, 71.8621°W)
Time: 20:06:39
(UTC+00:00)

Transit 4A - Pass Details

Date: 17 May 2021
Orbit: 872 x 973 km, 66.8° (Epoch: 15 June)

Event Time Altitude Azimuth Distance (km) Brightness Sun altitude
Rises 08:38:41 0° 311° (NW) 3,473 10.8 -7.6°
Reaches altitude 10° 08:42:26 10° 287° (WNW) 2,523 9.8 -7.0°
Maximum altitude 08:45:15 14° 258° (WSW) 2,249 9.4 -6.6°
Drops below altitude 10° 08:48:04 10° 228° (SW) 2,516 9.5 -6.2°
Enters shadow 08:50:50 - 209° (SSW) 3,172 10.1 -5.8°
